Crosby, ND

4:49 AM CDT on June 28, 2017 (GMT -0500)
Crosby

Weather History for KD50 - January, 2014

Change the Weather History Date:

Tuesday, January 21, 2014

  Actual Average (KISN) Record (KISN)
Temperature  
Mean Temperature 14 °F -  
Max Temperature 23 °F 27 °F 50 °F (1968)
Min Temperature 5 °F 6 °F -39 °F (1954)
Degree Days  
Heating Degree Days 51    
Moisture  
Dew Point 12 °F    
Average Humidity 88    
Maximum Humidity 93    
Minimum Humidity 72    
Precipitation  
Precipitation 1.24 in - - ()
Sea Level Pressure  
Sea Level Pressure 30.05 in    
Wind  
Wind Speed 19 mph (West)    
Max Wind Speed 30 mph    
Max Gust Speed 37 mph    
Visibility 8 miles    
Events Rain , Snow    
Averages and records for this station are not official NWS values.
T = Trace of Precipitation, MM = Missing Value Source: NWS Daily Summary

Daily Weather History Graph

Daily Weather History Graph

Search for Another Location

Airport or City:

Trip Planner

Search our weather history database for the weather conditions in past years. The results will help you decide how hot, cold, wet, or windy it might be!

Date:

Astronomy

Jan. 21, 2014 Rise Set
Actual Time 8:36 AM CST 5:33 PM CST
Civil Twilight 8:01 AM CST 6:08 PM CST
Nautical Twilight 7:22 AM CST 6:47 PM CST
Astronomical Twilight 6:44 AM CST 7:24 PM CST
Moon 11:41 PM CST (1/21) 10:37 AM CST (1/21)
Length of Visible Light 10h 07m
Length of Day
8h 56m
Waning Gibbous, 74% of the Moon is Illuminated
Jan 21
Waning Gibbous
Jan 23
Last Quarter
Jan 30
New
Feb 6
First Quarter
Feb 14
Full

Hourly Weather History & Observations

Time (CST) Temp. Windchill Dew Point Humidity Pressure Visibility Wind Dir Wind Speed Gust Speed Precip Events Conditions
12:15 AM 5.0 °F -13.6 °F -0.4 °F 78% 30.22 in - SSW 16.1 mph - N/A   Unknown
12:35 AM 5.0 °F -14.7 °F -0.4 °F 78% 30.21 in - South 18.4 mph 25.3 mph N/A   Unknown
12:55 AM 5.0 °F -15.2 °F -0.4 °F 78% 30.19 in - South 19.6 mph - N/A   Unknown
1:15 AM 5.0 °F -15.7 °F -0.4 °F 78% 30.17 in - SSW 20.7 mph 25.3 mph N/A   Unknown
1:35 AM 5.0 °F -16.2 °F -0.4 °F 78% 30.14 in - SSW 21.9 mph 26.5 mph N/A   Unknown
1:55 AM 5.0 °F -15.7 °F -0.4 °F 78% 30.13 in - SSW 20.7 mph 25.3 mph N/A   Unknown
2:15 AM 6.8 °F -12.4 °F -0.4 °F 72% 30.11 in - SSW 18.4 mph - N/A   Unknown
2:35 AM 6.8 °F -11.8 °F 1.4 °F 79% 30.10 in - SSW 17.3 mph - N/A   Unknown
2:55 AM 8.6 °F -10.0 °F 1.4 °F 73% 30.09 in - SSW 18.4 mph - N/A   Unknown
3:15 AM 8.6 °F -9.5 °F 3.2 °F 79% 30.06 in - South 17.3 mph - N/A   Unknown
3:35 AM 8.6 °F -10.0 °F 3.2 °F 79% 30.04 in - SSW 18.4 mph 24.2 mph N/A   Unknown
3:55 AM 8.6 °F -10.0 °F 5.0 °F 85% 30.03 in - SSW 18.4 mph - N/A   Unknown
4:15 AM 10.4 °F -8.2 °F 5.0 °F 79% 30.02 in - SSW 19.6 mph 24.2 mph N/A   Unknown
4:35 AM 10.4 °F -7.7 °F 5.0 °F 79% 30.00 in - SSW 18.4 mph - N/A   Unknown
4:55 AM 12.2 °F -5.3 °F 6.8 °F 79% 29.98 in 10.0 mi SSW 18.4 mph - N/A   Unknown
5:15 AM 12.2 °F -4.3 °F 6.8 °F 79% 29.96 in 10.0 mi SSW 16.1 mph 19.6 mph N/A   Unknown
5:35 AM 12.2 °F -1.8 °F 6.8 °F 79% 29.95 in 10.0 mi SSW 11.5 mph - N/A   Unknown
5:55 AM 14.0 °F -0.8 °F 8.6 °F 79% 29.94 in 4.0 mi SSW 13.8 mph - N/A Snow Light Snow
6:15 AM 14.0 °F -1.4 °F 8.6 °F 79% 29.94 in - SW 15.0 mph - N/A Snow Heavy Snow
6:35 AM 14.0 °F -2.5 °F 10.4 °F 86% 29.93 in - SSW 17.3 mph - N/A Snow Heavy Snow
6:55 AM 14.0 °F -0.2 °F 10.4 °F 86% 29.92 in 10.0 mi SW 12.7 mph - N/A   Unknown
7:15 AM 14.0 °F -0.2 °F 12.2 °F 93% 29.92 in 10.0 mi SW 12.7 mph - N/A   Unknown
7:35 AM 17.6 °F 4.3 °F 15.8 °F 93% 29.92 in 10.0 mi West 12.7 mph - N/A   Unknown
7:55 AM 19.4 °F 5.5 °F 15.8 °F 86% 29.91 in 10.0 mi West 15.0 mph 20.7 mph N/A   Unknown
8:15 AM 19.4 °F 3.6 °F 17.6 °F 93% 29.93 in 10.0 mi West 19.6 mph - N/A   Unknown
8:35 AM 19.4 °F 4.1 °F 17.6 °F 93% 29.92 in 10.0 mi WNW 18.4 mph - N/A   Unknown
8:55 AM 21.2 °F 6.0 °F 19.4 °F 93% 29.93 in 10.0 mi WNW 19.6 mph - N/A   Unknown
9:15 AM 23.0 °F 6.9 °F 21.2 °F 93% 29.93 in 10.0 mi NW 24.2 mph 31.1 mph N/A   Unknown
9:35 AM 21.2 °F 5.2 °F 19.4 °F 93% 29.96 in 8.0 mi NW 21.9 mph 35.7 mph N/A Rain Light Freezing Rain
9:55 AM 19.4 °F 0.8 °F 17.6 °F 93% 29.97 in 7.0 mi NW 28.8 mph 35.7 mph N/A Rain Light Freezing Rain
10:15 AM 19.4 °F 1.1 °F 17.6 °F 93% 29.99 in 9.0 mi NW 27.6 mph 35.7 mph N/A   Unknown
10:35 AM 19.4 °F 1.8 °F 17.6 °F 93% 30.00 in 9.0 mi NW 25.3 mph 36.8 mph N/A   Unknown
10:55 AM 19.4 °F 1.1 °F 17.6 °F 93% 30.01 in 10.0 mi NW 27.6 mph 35.7 mph N/A   Unknown
11:15 AM 19.4 °F 1.8 °F 17.6 °F 93% 30.02 in 10.0 mi NW 25.3 mph 33.4 mph N/A   Unknown
11:35 AM 19.4 °F 1.4 °F 17.6 °F 93% 30.03 in 10.0 mi NW 26.5 mph 34.5 mph N/A   Unknown
11:55 AM 19.4 °F 0.5 °F 17.6 °F 93% 30.04 in 10.0 mi NW 29.9 mph 36.8 mph N/A   Unknown
12:15 PM 19.4 °F 2.5 °F 17.6 °F 93% 30.05 in 7.0 mi NW 23.0 mph 36.8 mph N/A   Unknown
12:35 PM 17.6 °F -0.6 °F 15.8 °F 93% 30.05 in 2.0 mi NW 25.3 mph 35.7 mph 0.01 in Snow Light Snow
12:55 PM 17.6 °F -1.0 °F 15.8 °F 93% 30.06 in 1.5 mi NW 26.5 mph 35.7 mph 0.04 in Snow Light Snow
1:15 PM 17.6 °F -1.3 °F 15.8 °F 93% 30.07 in 1.5 mi NW 27.6 mph 35.7 mph 0.03 in Snow Light Snow
1:35 PM 17.6 °F 0.1 °F 15.8 °F 93% 30.08 in 2.0 mi NW 23.0 mph 28.8 mph 0.14 in Snow Light Snow
1:55 PM 17.6 °F 0.1 °F 15.8 °F 93% 30.08 in 1.5 mi NW 23.0 mph 27.6 mph 0.27 in Snow Light Snow
2:15 PM 17.6 °F 0.1 °F 14.0 °F 86% 30.07 in 3.0 mi NNW 23.0 mph 33.4 mph 0.06 in Snow Light Snow
2:35 PM 17.6 °F -0.6 °F 14.0 °F 86% 30.08 in 2.5 mi NW 25.3 mph 31.1 mph 0.15 in Snow Light Snow
2:55 PM 15.8 °F -3.7 °F 14.0 °F 93% 30.09 in 3.0 mi NW 27.6 mph 35.7 mph 0.38 in Snow Light Snow
3:15 PM 15.8 °F -3.4 °F 14.0 °F 93% 30.10 in 1.8 mi NW 26.5 mph 34.5 mph 0.18 in Snow Light Snow
3:35 PM 15.8 °F -1.9 °F 14.0 °F 93% 30.11 in 2.5 mi NNW 21.9 mph 27.6 mph 0.51 in Snow Light Snow
3:55 PM 17.6 °F -0.3 °F 15.8 °F 93% 30.10 in 2.0 mi NNW 24.2 mph 29.9 mph 0.54 in Snow Light Snow
4:15 PM 15.8 °F -1.5 °F 14.0 °F 93% 30.12 in 3.0 mi NW 20.7 mph 26.5 mph N/A Snow Light Snow
4:35 PM 15.8 °F -2.3 °F 14.0 °F 93% 30.12 in 8.0 mi NW 23.0 mph 31.1 mph 0.01 in Snow Light Snow
4:55 PM 15.8 °F -0.6 °F 14.0 °F 93% 30.12 in 10.0 mi NW 18.4 mph 28.8 mph 0.01 in   Unknown
5:15 PM 15.8 °F 0.3 °F 14.0 °F 93% 30.12 in 10.0 mi NW 16.1 mph 23.0 mph N/A   Unknown
5:35 PM 15.8 °F 2.7 °F 14.0 °F 93% 30.13 in 10.0 mi NW 11.5 mph 21.9 mph N/A   Unknown
5:55 PM 15.8 °F 4.2 °F 14.0 °F 93% 30.13 in 10.0 mi WNW 9.2 mph - N/A   Unknown
6:15 PM 15.8 °F 2.7 °F 14.0 °F 93% 30.13 in 10.0 mi WNW 11.5 mph 16.1 mph N/A   Unknown
6:35 PM 15.8 °F 3.4 °F 14.0 °F 93% 30.13 in 10.0 mi WNW 10.4 mph - N/A   Unknown
6:55 PM 17.6 °F 5.0 °F 14.0 °F 86% 30.13 in 10.0 mi WNW 11.5 mph - N/A   Unknown
7:15 PM 17.6 °F 4.3 °F 14.0 °F 86% 30.12 in 10.0 mi West 12.7 mph - N/A   Unknown
7:35 PM 17.6 °F 5.0 °F 14.0 °F 86% 30.11 in 10.0 mi West 11.5 mph - N/A   Unknown
7:55 PM 17.6 °F 4.3 °F 14.0 °F 86% 30.11 in 10.0 mi West 12.7 mph - N/A   Unknown
8:15 PM 17.6 °F 3.2 °F 15.8 °F 93% 30.11 in 10.0 mi West 15.0 mph - N/A   Unknown
8:35 PM 17.6 °F 2.7 °F 15.8 °F 93% 30.10 in 10.0 mi West 16.1 mph - N/A   Unknown
8:55 PM 17.6 °F 2.7 °F 15.8 °F 93% 30.09 in 10.0 mi West 16.1 mph - N/A   Unknown
9:15 PM 17.6 °F 3.7 °F 15.8 °F 93% 30.08 in 10.0 mi West 13.8 mph - N/A   Unknown
9:35 PM 19.4 °F 6.6 °F 15.8 °F 86% 30.07 in 10.0 mi WNW 12.7 mph - N/A   Unknown
9:55 PM 21.2 °F 7.3 °F 17.6 °F 86% 30.07 in 10.0 mi WNW 16.1 mph - N/A   Unknown
10:15 PM 21.2 °F 8.3 °F 17.6 °F 86% 30.07 in 10.0 mi West 13.8 mph - N/A   Unknown
10:35 PM 19.4 °F 5.0 °F 17.6 °F 93% 30.07 in 10.0 mi West 16.1 mph 21.9 mph N/A   Unknown
10:55 PM 21.2 °F 5.6 °F 17.6 °F 86% 30.06 in 10.0 mi WNW 20.7 mph 25.3 mph N/A Snow Light Snow
11:15 PM 21.2 °F 5.2 °F 19.4 °F 93% 30.06 in 10.0 mi NW 21.9 mph 29.9 mph N/A Snow Light Snow
11:35 PM 21.2 °F 3.9 °F 19.4 °F 93% 30.07 in 10.0 mi NW 26.5 mph 34.5 mph N/A Snow Light Snow
11:55 PM 19.4 °F 2.1 °F 17.6 °F 93% 30.09 in 10.0 mi NNW 24.2 mph 31.1 mph N/A   Unknown